• In Belarus
  • List of Countries
  • For 7 days
  • Water Temperature
  • Satellite Maps
  • Weather Map
  • Weather Widgets
  • user-avatar
    Login

    Hourly Weather Neuquén

    Today, 13 November, Tuesday

    Time Temperature Precipitation Wind Pressure Humidity
    00:00 +18°C° 0 mm 7 mps 732 mmHg 42%
    01:00 +18°C° 0 mm 8 mps 732 mmHg 42%
    02:00 +17°C° 0 mm 8 mps 732 mmHg 43%
    03:00 +17°C° 0 mm 8 mps 732 mmHg 45%
    04:00 +17°C° 0 mm 8 mps 732 mmHg 47%
    05:00 +18°C° 0 mm 9 mps 732 mmHg 44%
    06:00 +18°C° 0 mm 9 mps 732 mmHg 41%
    07:00 +18°C° 0 mm 10 mps 732 mmHg 39%
    08:00 +21°C° 0 mm 9 mps 732 mmHg 36%
    09:00 +22°C° 0 mm 8 mps 732 mmHg 32%
    10:00 +24°C° 0 mm 7 mps 732 mmHg 29%
    11:00 +24°C° 0 mm 7 mps 732 mmHg 27%
    12:00 +26°C° 0 mm 7 mps 731 mmHg 25%
    13:00 +27°C° 0 mm 8 mps 731 mmHg 23%
    14:00 +26°C° 0 mm 8 mps 730 mmHg 22%
    15:00 +26°C° 0 mm 9 mps 730 mmHg 22%
    16:00 +26°C° 0 mm 10 mps 730 mmHg 22%
    17:00 +24°C° 0 mm 11 mps 730 mmHg 24%
    18:00 +23°C° 0 mm 11 mps 730 mmHg 27%
    19:00 +22°C° 0 mm 12 mps 729 mmHg 29%
    20:00 +20°C° 0 mm 13 mps 730 mmHg 32%
    21:00 +18°C° 0 mm 13 mps 730 mmHg 35%
    22:00 +17°C° 0 mm 14 mps 730 mmHg 38%
    23:00 +17°C° 0 mm 14 mps 730 mmHg 38%

    Tomorrow, 14 November, Wednesday

    Time Temperature Precipitation Wind Pressure Humidity
    00:00 +15°C° 0 mm 13 mps 730 mmHg 38%
    01:00 +14°C° 0 mm 13 mps 730 mmHg 38%
    02:00 +14°C° 0 mm 13 mps 730 mmHg 38%
    03:00 +14°C° 0 mm 12 mps 730 mmHg 38%
    04:00 +13°C° 0 mm 12 mps 730 mmHg 38%
    05:00 +14°C° 0 mm 13 mps 730 mmHg 36%
    06:00 +15°C° 0 mm 13 mps 730 mmHg 34%
    07:00 +17°C° 0 mm 13 mps 731 mmHg 32%
    08:00 +19°C° 0 mm 13 mps 731 mmHg 31%
    09:00 +20°C° 0 mm 13 mps 730 mmHg 29%
    10:00 +22°C° 0 mm 12 mps 730 mmHg 27%
    11:00 +24°C° 0 mm 12 mps 730 mmHg 25%
    12:00 +26°C° 0 mm 11 mps 729 mmHg 23%
    13:00 +27°C° 0 mm 11 mps 729 mmHg 21%
    14:00 +27°C° 0 mm 11 mps 728 mmHg 20%
    15:00 +27°C° 0 mm 11 mps 728 mmHg 19%
    16:00 +27°C° 0 mm 12 mps 727 mmHg 18%
    17:00 +26°C° 0 mm 11 mps 728 mmHg 21%
    18:00 +24°C° 0 mm 11 mps 728 mmHg 24%
    19:00 +22°C° 0 mm 10 mps 728 mmHg 28%
    20:00 +21°C° 0 mm 10 mps 728 mmHg 31%
    21:00 +19°C° 0 mm 10 mps 728 mmHg 35%
    22:00 +18°C° 0 mm 10 mps 729 mmHg 39%
    23:00 +18°C° 0 mm 9 mps 728 mmHg 40%

    Day after tomorrow, 15 November, Thursday

    Time Temperature Precipitation Wind Pressure Humidity
    00:00 +17°C° 0 mm 9 mps 728 mmHg 41%
    01:00 +17°C° 0 mm 8 mps 728 mmHg 43%
    02:00 +16°C° 0 mm 8 mps 728 mmHg 43%
    03:00 +16°C° 0 mm 8 mps 728 mmHg 44%
    04:00 +15°C° 0 mm 8 mps 729 mmHg 45%
    05:00 +15°C° 0 mm 9 mps 730 mmHg 39%
    06:00 +14°C° 0 mm 11 mps 731 mmHg 34%
    07:00 +14°C° 0 mm 12 mps 732 mmHg 28%
    08:00 +16°C° 0 mm 11 mps 732 mmHg 25%
    09:00 +17°C° 0 mm 9 mps 733 mmHg 22%
    10:00 +18°C° 0 mm 8 mps 733 mmHg 18%
    11:00 +20°C° 0 mm 8 mps 733 mmHg 17%
    12:00 +20°C° 0 mm 7 mps 733 mmHg 15%
    13:00 +21°C° 0 mm 7 mps 733 mmHg 13%
    14:00 +22°C° 0 mm 7 mps 733 mmHg 13%
    15:00 +22°C° 0 mm 6 mps 732 mmHg 12%
    16:00 +22°C° 0 mm 6 mps 732 mmHg 11%
    17:00 +22°C° 0 mm 5 mps 733 mmHg 13%
    18:00 +21°C° 0 mm 4 mps 733 mmHg 14%
    19:00 +20°C° 0 mm 2 mps 733 mmHg 15%
    20:00 +19°C° 0 mm 2 mps 734 mmHg 16%
    21:00 +19°C° 0 mm 3 mps 734 mmHg 17%
    22:00 +18°C° 0 mm 3 mps 735 mmHg 18%
    23:00 +17°C° 0 mm 4 mps 734 mmHg 19%

    16 November, Friday

    Time Temperature Precipitation Wind Pressure Humidity
    00:00 +17°C° 0 mm 4 mps 734 mmHg 20%
    01:00 +15°C° 0 mm 5 mps 733 mmHg 22%
    02:00 +15°C° 0 mm 5 mps 733 mmHg 23%
    03:00 +14°C° 0 mm 5 mps 733 mmHg 24%
    04:00 +14°C° 0 mm 5 mps 732 mmHg 25%
    05:00 +15°C° 0 mm 7 mps 732 mmHg 24%
    06:00 +17°C° 0 mm 9 mps 732 mmHg 24%
    07:00 +18°C° 0 mm 11 mps 732 mmHg 23%
    08:00 +21°C° 0 mm 11 mps 732 mmHg 23%
    09:00 +22°C° 0 mm 11 mps 732 mmHg 22%
    10:00 +24°C° 0 mm 12 mps 731 mmHg 22%
    11:00 +26°C° 0 mm 11 mps 730 mmHg 21%
    12:00 +27°C° 0 mm 10 mps 729 mmHg 20%
    13:00 +27°C° 0 mm 9 mps 728 mmHg 19%
    14:00 +26°C° 0.1 mm 8 mps 728 mmHg 23%
    15:00 +24°C° 0.1 mm 7 mps 728 mmHg 26%
    16:00 +23°C° 0.1 mm 6 mps 728 mmHg 30%
    17:00 +22°C° 0.2 mm 6 mps 728 mmHg 35%
    18:00 +21°C° 0.2 mm 5 mps 728 mmHg 39%
    19:00 +19°C° 0.2 mm 4 mps 728 mmHg 44%
    20:00 +19°C° 0.1 mm 5 mps 729 mmHg 45%
    21:00 +17°C° 0.1 mm 6 mps 729 mmHg 45%
    22:00 +17°C° 0.1 mm 8 mps 729 mmHg 46%
    23:00 +16°C° 0.2 mm 8 mps 729 mmHg 45%

    17 November, Saturday

    Time Temperature Precipitation Wind Pressure Humidity
    00:00 +15°C° 0.2 mm 9 mps 729 mmHg 44%
    01:00 +13°C° 0.2 mm 10 mps 729 mmHg 44%
    02:00 +12°C° 0 mm 11 mps 729 mmHg 44%
    03:00 +12°C° 0 mm 11 mps 729 mmHg 43%
    04:00 +10°C° 0 mm 12 mps 730 mmHg 43%
    05:00 +10°C° 0 mm 13 mps 730 mmHg 40%
    06:00 +12°C° 0 mm 13 mps 731 mmHg 38%
    07:00 +12°C° 0 mm 13 mps 732 mmHg 35%
    08:00 +13°C° 0 mm 13 mps 732 mmHg 32%
    09:00 +15°C° 0 mm 13 mps 733 mmHg 28%
    10:00 +17°C° 0 mm 13 mps 733 mmHg 25%
    11:00 +18°C° 0 mm 13 mps 733 mmHg 24%
    12:00 +19°C° 0 mm 12 mps 733 mmHg 22%
    13:00 +21°C° 0 mm 12 mps 733 mmHg 21%
    14:00 +21°C° 0 mm 12 mps 733 mmHg 21%
    15:00 +20°C° 0 mm 13 mps 733 mmHg 22%
    16:00 +20°C° 0 mm 13 mps 732 mmHg 22%
    17:00 +19°C° 0 mm 12 mps 733 mmHg 24%
    18:00 +18°C° 0 mm 10 mps 733 mmHg 26%
    19:00 +17°C° 0 mm 9 mps 734 mmHg 28%
    20:00 +16°C° 0 mm 9 mps 734 mmHg 32%
    21:00 +16°C° 0 mm 9 mps 734 mmHg 35%
    22:00 +15°C° 0 mm 9 mps 735 mmHg 38%
    23:00 +13°C° 0 mm 9 mps 734 mmHg 42%

    18 November, Sunday

    Time Temperature Precipitation Wind Pressure Humidity
    00:00 +13°C° 0 mm 8 mps 734 mmHg 45%
    01:00 +12°C° 0 mm 8 mps 734 mmHg 49%
    02:00 +12°C° 0 mm 8 mps 734 mmHg 49%
    03:00 +11°C° 0 mm 8 mps 734 mmHg 49%
    04:00 +11°C° 0 mm 8 mps 734 mmHg 50%
    05:00 +12°C° 0 mm 8 mps 734 mmHg 45%
    06:00 +13°C° 0 mm 9 mps 734 mmHg 40%
    07:00 +16°C° 0 mm 10 mps 735 mmHg 35%
    08:00 +17°C° 0 mm 9 mps 734 mmHg 31%
    09:00 +20°C° 0 mm 8 mps 734 mmHg 27%
    10:00 +22°C° 0 mm 8 mps 734 mmHg 23%
    11:00 +23°C° 0 mm 7 mps 734 mmHg 22%
    12:00 +24°C° 0 mm 7 mps 733 mmHg 21%
    13:00 +26°C° 0 mm 6 mps 732 mmHg 20%
    14:00 +27°C° 0 mm 6 mps 732 mmHg 20%
    15:00 +27°C° 0 mm 6 mps 732 mmHg 20%
    16:00 +28°C° 0 mm 7 mps 731 mmHg 20%
    17:00 +27°C° 0 mm 6 mps 731 mmHg 22%
    18:00 +26°C° 0 mm 5 mps 732 mmHg 24%
    19:00 +25°C° 0 mm 5 mps 732 mmHg 27%
    20:00 +23°C° 0 mm 5 mps 732 mmHg 29%
    21:00 +22°C° 0 mm 4 mps 732 mmHg 31%
    22:00 +22°C° 0 mm 4 mps 732 mmHg 34%
    23:00 +21°C° 0 mm 4 mps 732 mmHg 36%
    Show more